Radiation Dose at Monitoring Post of Fukushima Daini Nuclear Power Station
Date,Time,MP-1(microSv/h),MP-2(microSv/h),MP-3(microSv/h),MP-4(microSv/h),MP-5(microSv/h),MP-6(microSv/h),MP-7(microSv/h),Wind Direction,Wind Velocity(m/s),Rain
2017/09/23,00:00,0.346,0.215,0.351,0.329,0.315,0.175,0.104,south,3.3,Yes
2017/09/23,00:10,0.344,0.215,0.356,0.334,0.318,0.174,0.103,south,2.8,Yes
2017/09/23,00:20,0.349,0.215,0.352,0.330,0.315,0.175,0.103,south,3.6,Yes
2017/09/23,00:30,0.344,0.215,0.354,0.330,0.317,0.174,0.103,south-southeast,4.0,Yes
2017/09/23,00:40,0.347,0.216,0.354,0.331,0.318,0.174,0.103,south-southeast,3.9,Yes
2017/09/23,00:50,0.345,0.215,0.353,0.329,0.315,0.175,0.103,south,3.6,Yes
2017/09/23,01:00,0.345,0.216,0.354,0.333,0.318,0.174,0.104,south,3.4,Yes
2017/09/23,01:10,0.346,0.215,0.353,0.330,0.316,0.176,0.104,south,3.2,Yes
2017/09/23,01:20,0.343,0.217,0.355,0.335,0.318,0.175,0.106,south,3.1,Yes
2017/09/23,01:30,0.349,0.216,0.353,0.332,0.319,0.177,0.105,south-southeast,2.9,Yes
2017/09/23,01:40,0.345,0.218,0.357,0.331,0.316,0.176,0.105,south,3.2,Yes
2017/09/23,01:50,0.347,0.217,0.354,0.335,0.320,0.176,0.106,south,3.9,Yes
2017/09/23,02:00,0.346,0.217,0.355,0.331,0.315,0.177,0.106,south-southeast,4.1,Yes
2017/09/23,02:10,0.346,0.216,0.355,0.334,0.319,0.177,0.106,south-southeast,5.2,Yes
2017/09/23,02:20,0.350,0.217,0.353,0.331,0.318,0.178,0.105,south-southeast,4.4,Yes
2017/09/23,02:30,0.344,0.219,0.355,0.332,0.318,0.178,0.107,east,16.3,Yes
2017/09/23,02:40,0.348,0.218,0.352,0.331,0.319,0.179,0.107,east,19.9,Yes
2017/09/23,02:50,0.347,0.220,0.355,0.330,0.317,0.179,0.109,south-southeast,10.0,Yes
2017/09/23,03:00,0.345,0.219,0.349,0.331,0.320,0.178,0.109,southeast,10.7,Yes
2017/09/23,03:10,0.347,0.221,0.352,0.329,0.318,0.180,0.111,south,13.4,Yes
2017/09/23,03:20,0.346,0.220,0.350,0.332,0.321,0.180,0.111,south-southeast,7.0,Yes
2017/09/23,03:30,0.348,0.222,0.351,0.328,0.320,0.181,0.111,southeast,5.7,Yes
2017/09/23,03:40,0.345,0.221,0.349,0.332,0.321,0.179,0.110,south-southeast,3.3,Yes
2017/09/23,03:50,0.348,0.222,0.350,0.328,0.321,0.181,0.111,south-southeast,2.8,Yes
2017/09/23,04:00,0.344,0.220,0.350,0.331,0.319,0.179,0.111,southeast,3.2,Yes
2017/09/23,04:10,0.347,0.221,0.348,0.329,0.321,0.180,0.110,east-southeast,3.6,Yes
2017/09/23,04:20,0.344,0.220,0.349,0.328,0.316,0.179,0.110,southwest,1.5,Yes
2017/09/23,04:30,0.344,0.220,0.347,0.327,0.320,0.179,0.109,south-southwest,1.3,Yes
2017/09/23,04:40,0.343,0.219,0.348,0.326,0.317,0.178,0.108,-,CALM,Yes
2017/09/23,04:50,0.343,0.218,0.345,0.327,0.319,0.176,0.108,east-northeast,1.4,Yes
2017/09/23,05:00,0.342,0.216,0.346,0.323,0.317,0.176,0.107,east-southeast,0.8,Yes
2017/09/23,05:10,0.340,0.217,0.344,0.327,0.317,0.174,0.106,east-southeast,1.4,Yes
2017/09/23,05:20,0.341,0.216,0.347,0.323,0.316,0.174,0.107,east-southeast,2.2,Yes
2017/09/23,05:30,0.338,0.216,0.342,0.325,0.315,0.174,0.106,east-southeast,2.4,Yes
2017/09/23,05:40,0.341,0.216,0.346,0.323,0.318,0.172,0.106,east,3.9,Yes
2017/09/23,05:50,0.338,0.215,0.341,0.323,0.314,0.174,0.105,east,5.0,Yes
2017/09/23,06:00,0.341,0.213,0.343,0.321,0.316,0.172,0.104,east-southeast,2.5,Yes
2017/09/23,06:10,0.337,0.213,0.340,0.322,0.312,0.172,0.104,east-southeast,1.7,No
2017/09/23,06:20,0.338,0.213,0.343,0.320,0.314,0.170,0.103,east,0.7,Yes
2017/09/23,06:30,0.338,0.211,0.340,0.321,0.312,0.170,0.103,east,1.1,Yes
2017/09/23,06:40,0.335,0.210,0.340,0.321,0.314,0.169,0.102,northeast,1.9,Yes
2017/09/23,06:50,0.336,0.210,0.339,0.319,0.313,0.170,0.102,north-northeast,1.5,Yes
2017/09/23,07:00,0.335,0.211,0.338,0.319,0.311,0.170,0.101,northeast,2.5,Yes
2017/09/23,07:10,0.336,0.210,0.340,0.319,0.313,0.169,0.101,northeast,1.8,Yes
2017/09/23,07:20,0.334,0.210,0.338,0.321,0.310,0.170,0.101,north-northeast,1.6,Yes
2017/09/23,07:30,0.336,0.209,0.341,0.319,0.313,0.169,0.102,north-northwest,2.0,No
2017/09/23,07:40,0.334,0.210,0.337,0.320,0.309,0.168,0.101,north,3.0,No
2017/09/23,07:50,0.337,0.210,0.340,0.319,0.312,0.168,0.101,north,2.8,No
2017/09/23,08:00,0.335,0.209,0.336,0.318,0.311,0.168,0.101,north,3.4,Yes
2017/09/23,08:10,0.335,0.208,0.339,0.319,0.308,0.168,0.101,north,3.9,No
2017/09/23,08:20,0.336,0.209,0.336,0.317,0.311,0.167,0.100,north,3.3,Yes
2017/09/23,08:30,0.333,0.207,0.339,0.320,0.308,0.168,0.100,north,3.2,Yes
2017/09/23,08:40,0.337,0.209,0.338,0.316,0.312,0.167,0.100,north-northwest,3.4,No
2017/09/23,08:50,0.332,0.208,0.336,0.319,0.310,0.168,0.098,north,3.4,No
2017/09/23,09:00,0.336,0.206,0.339,0.317,0.309,0.167,0.099,north,2.5,No
2017/09/23,09:10,0.334,0.207,0.336,0.316,0.312,0.166,0.099,north,3.0,No
2017/09/23,09:20,0.334,0.207,0.339,0.319,0.308,0.168,0.098,north,3.2,No
2017/09/23,09:30,0.335,0.209,0.337,0.315,0.310,0.167,0.099,north-northeast,4.2,No
2017/09/23,09:40,0.334,0.208,0.336,0.318,0.310,0.166,0.098,north-northeast,3.9,No
2017/09/23,09:50,0.337,0.208,0.340,0.316,0.309,0.167,0.099,north-northeast,6.0,No
2017/09/23,10:00,0.334,0.209,0.336,0.316,0.312,0.166,0.099,north-northeast,6.2,No
2017/09/23,10:10,0.334,0.207,0.340,0.319,0.310,0.167,0.098,north-northeast,7.0,No
2017/09/23,10:20,0.337,0.209,0.338,0.316,0.308,0.168,0.100,north-northeast,5.6,No
2017/09/23,10:30,0.335,0.207,0.338,0.319,0.312,0.168,0.098,north-northeast,6.5,No
2017/09/23,10:40,0.337,0.210,0.340,0.319,0.309,0.168,0.099,north,5.0,No
2017/09/23,10:50,0.333,0.210,0.336,0.316,0.310,0.168,0.100,north,4.3,No
2017/09/23,11:00,0.337,0.208,0.340,0.321,0.313,0.168,0.099,north,5.4,No
2017/09/23,11:10,0.336,0.211,0.338,0.318,0.309,0.169,0.099,north-northwest,5.4,No
2017/09/23,11:20,0.336,0.208,0.338,0.319,0.312,0.168,0.100,north-northwest,5.1,No
2017/09/23,11:30,0.337,0.209,0.339,0.321,0.312,0.168,0.099,north-northwest,4.7,No
2017/09/23,11:40,0.334,0.210,0.336,0.318,0.309,0.168,0.099,north-northwest,5.3,No
2017/09/23,11:50,0.338,0.208,0.339,0.318,0.310,0.169,0.099,north-northwest,4.8,No
2017/09/23,12:00,0.337,0.209,0.340,0.320,0.312,0.166,0.099,north-northwest,4.7,No
2017/09/23,12:10,0.335,0.210,0.338,0.318,0.308,0.169,0.100,north-northwest,4.3,Yes
2017/09/23,12:20,0.339,0.209,0.341,0.320,0.313,0.170,0.101,north-northwest,3.0,Yes
2017/09/23,12:30,0.336,0.210,0.338,0.321,0.311,0.168,0.100,north-northwest,2.8,No
2017/09/23,12:40,0.339,0.208,0.342,0.318,0.311,0.169,0.100,north-northwest,2.4,No
2017/09/23,12:50,0.338,0.209,0.339,0.321,0.312,0.169,0.099,north,2.8,No
2017/09/23,13:00,0.335,0.210,0.339,0.319,0.309,0.167,0.100,north,3.0,No
2017/09/23,13:10,0.339,0.208,0.341,0.319,0.313,0.169,0.100,north,4.3,No
2017/09/23,13:20,0.335,0.210,0.339,0.321,0.312,0.169,0.100,north,4.2,No
2017/09/23,13:30,0.337,0.209,0.340,0.317,0.309,0.167,0.100,north,3.4,No
2017/09/23,13:40,0.339,0.208,0.340,0.320,0.313,0.170,0.100,north,4.0,No
2017/09/23,13:50,0.335,0.210,0.337,0.320,0.311,0.169,0.099,north,4.0,No
2017/09/23,14:00,0.338,0.208,0.341,0.318,0.308,0.167,0.099,north,3.4,No
2017/09/23,14:10,0.336,0.210,0.339,0.322,0.313,0.168,0.099,north-northwest,2.8,No
2017/09/23,14:20,0.335,0.209,0.340,0.317,0.310,0.169,0.100,north-northwest,3.3,No
2017/09/23,14:30,0.340,0.208,0.341,0.319,0.309,0.168,0.100,north-northwest,2.9,No
2017/09/23,14:40,0.335,0.211,0.338,0.320,0.313,0.169,0.100,north-northwest,2.2,No
2017/09/23,14:50,0.339,0.209,0.342,0.317,0.311,0.167,0.099,north,3.2,No
2017/09/23,15:00,0.339,0.209,0.340,0.322,0.311,0.169,0.100,north,3.7,No
2017/09/23,15:10,0.336,0.210,0.339,0.319,0.312,0.169,0.100,north-northwest,3.4,No
2017/09/23,15:20,0.338,0.209,0.342,0.317,0.310,0.168,0.099,north,3.0,No
2017/09/23,15:30,0.336,0.209,0.340,0.322,0.312,0.168,0.101,north,2.6,No
2017/09/23,15:40,0.338,0.210,0.341,0.319,0.313,0.169,0.100,north,1.3,No
2017/09/23,15:50,0.339,0.209,0.341,0.320,0.308,0.168,0.099,north,3.0,No
2017/09/23,16:00,0.337,0.212,0.339,0.321,0.312,0.169,0.100,north,3.4,No
2017/09/23,16:10,0.338,0.209,0.343,0.319,0.313,0.169,0.100,north,3.2,No
2017/09/23,16:20,0.339,0.209,0.339,0.322,0.310,0.168,0.100,north,2.2,No
2017/09/23,16:30,0.336,0.210,0.342,0.321,0.314,0.168,0.100,north,1.9,No
2017/09/23,16:40,0.339,0.210,0.343,0.320,0.312,0.169,0.100,-,CALM,No
2017/09/23,16:50,0.338,0.212,0.341,0.321,0.312,0.169,0.101,north-northwest,1.6,Yes
2017/09/23,17:00,0.339,0.209,0.344,0.319,0.314,0.170,0.100,north-northwest,1.8,No
2017/09/23,17:10,0.339,0.211,0.340,0.324,0.310,0.168,0.100,north-northwest,1.4,No
2017/09/23,17:20,0.337,0.210,0.342,0.320,0.314,0.169,0.100,north-northwest,1.4,No
2017/09/23,17:30,0.342,0.211,0.342,0.320,0.312,0.171,0.099,north,1.5,No
2017/09/23,17:40,0.337,0.211,0.339,0.321,0.311,0.168,0.100,north,2.2,No
2017/09/23,17:50,0.340,0.210,0.342,0.320,0.313,0.169,0.099,north,2.1,No
2017/09/23,18:00,0.338,0.210,0.341,0.323,0.312,0.169,0.100,north,2.4,No
2017/09/23,18:10,0.338,0.209,0.343,0.321,0.315,0.169,0.100,north,4.5,No
2017/09/23,18:20,0.340,0.211,0.340,0.323,0.310,0.170,0.101,north,4.4,No
2017/09/23,18:30,0.337,0.209,0.342,0.319,0.312,0.170,0.100,north,3.3,No
2017/09/23,18:40,0.338,0.210,0.341,0.322,0.312,0.170,0.100,north,4.2,No
2017/09/23,18:50,0.337,0.210,0.342,0.322,0.311,0.168,0.101,north,3.9,No
2017/09/23,19:00,0.339,0.212,0.342,0.320,0.313,0.168,0.100,north,3.1,No
2017/09/23,19:10,0.340,0.210,0.340,0.322,0.309,0.168,0.101,north,3.7,No
2017/09/23,19:20,0.337,0.209,0.342,0.318,0.315,0.170,0.100,north,3.6,No
2017/09/23,19:30,0.341,0.209,0.341,0.323,0.312,0.170,0.100,north,3.4,No
2017/09/23,19:40,0.336,0.210,0.343,0.321,0.313,0.169,0.100,north,2.8,No
2017/09/23,19:50,0.340,0.210,0.341,0.321,0.313,0.170,0.100,north,3.4,No
2017/09/23,20:00,0.339,0.210,0.342,0.321,0.313,0.169,0.100,north-northwest,3.5,No
2017/09/23,20:10,0.339,0.210,0.339,0.322,0.313,0.169,0.100,north-northwest,3.2,No
2017/09/23,20:20,0.339,0.211,0.344,0.321,0.311,0.169,0.101,north-northwest,2.2,No
2017/09/23,20:30,0.338,0.210,0.341,0.321,0.313,0.170,0.100,north,2.3,No
2017/09/23,20:40,0.340,0.210,0.342,0.323,0.311,0.168,0.101,north,2.5,No
2017/09/23,20:50,0.339,0.210,0.343,0.321,0.312,0.169,0.100,north,2.9,No
2017/09/23,21:00,0.340,0.210,0.343,0.321,0.310,0.169,0.101,north,2.2,No
2017/09/23,21:10,0.337,0.210,0.342,0.321,0.314,0.170,0.100,north-northeast,2.9,No
2017/09/23,21:20,0.340,0.211,0.343,0.322,0.310,0.170,0.100,north-northeast,2.9,No
2017/09/23,21:30,0.337,0.210,0.341,0.324,0.313,0.170,0.100,north,3.6,No
2017/09/23,21:40,0.341,0.210,0.342,0.322,0.310,0.170,0.101,north,3.3,No
2017/09/23,21:50,0.337,0.211,0.341,0.321,0.313,0.169,0.100,north,3.1,No
2017/09/23,22:00,0.342,0.210,0.343,0.322,0.310,0.169,0.101,north-northwest,2.9,No
2017/09/23,22:10,0.338,0.210,0.342,0.321,0.314,0.170,0.100,north,3.3,No
2017/09/23,22:20,0.341,0.210,0.343,0.323,0.310,0.170,0.100,north,3.4,No
2017/09/23,22:30,0.338,0.211,0.341,0.322,0.314,0.171,0.100,north-northwest,3.4,No
2017/09/23,22:40,0.340,0.210,0.345,0.322,0.310,0.169,0.101,north-northwest,2.8,No
2017/09/23,22:50,0.338,0.211,0.340,0.321,0.314,0.171,0.101,north,2.4,No
2017/09/23,23:00,0.340,0.210,0.342,0.322,0.309,0.170,0.100,north,3.0,No
2017/09/23,23:10,0.337,0.210,0.339,0.321,0.314,0.171,0.100,north,2.7,No
2017/09/23,23:20,0.339,0.210,0.343,0.321,0.311,0.169,0.100,north,3.0,No
2017/09/23,23:30,0.337,0.210,0.340,0.321,0.315,0.170,0.100,north,2.6,No
2017/09/23,23:40,0.341,0.210,0.343,0.322,0.310,0.170,0.100,north,2.8,No
2017/09/23,23:50,0.339,0.210,0.342,0.321,0.312,0.171,0.100,north,2.2,No
